FENGYUN 1C DEB

Satellite information

Favourite Embed

Satellite Type and Status

DEBRISIN ORBIT

Key statistics

Satellite FENGYUN 1C DEB at a glance.

Uptime

9609

Days in orbit

Revolutions

≈ 14.4

Per day

Orbit

SSO

Sun Synchronous Orbit

Inclination

99.2

Latest

Satellite identification and parameters

Extended collection of information and parameters for FENGYUN 1C DEB.

Object identification

Identified? True

Debris? True

Object name: FENGYUN 1C DEB

International designator: 1999-025ALR

Object number (NORAD): 30575

Object ID (CCSDS): 30575

Country: PEOPLES REPUBLIC OF CHINA (PRC)

Current information (Y/N): Y

RCS size: SMALL

Orbital parameters

Period: 100.058 minutes

Inclination: 99.1736 deg

SMA: 7139.39 km

Apoapsis: 800.955 km

Periapsis: 721.554 km

RAAN: 325.3036 deg

Eccentricy: 0.0055608

Argument of periapsis: 184.4758 deg

Mean anomaly: 306.9198 deg

Mean motion: 14.39166801 rev/day

Mean motion (dot): 0.00003622 rev/day2

B* drag term: 0.0011639863 1/REarth

Two-line elements (TLE)

Creation date: Aug. 30, 2025, 3:38 a.m.

Reference frame: TEME

Reference center: EARTH

Epoch: Aug. 29, 2025, 4:58 p.m. UTC

TLE line 0: 0 FENGYUN 1C DEB

TLE line 1: 1 30575U 99025ALR 25241.70735481 .00003622 00000-0 11640-2 0 9991

TLE line 2: 2 30575 99.1736 325.3036 0055608 184.4758 306.9198 14.39166801967063

Live tracking on map

Real-time ground track for satellite FENGYUN 1C DEB.

In-orbit conjunctions

A list of the most updated potential collisions computed for object FENGYUN 1C DEB.

Target Orbit TCA Probability of collision Miss distance Type
NOAA 16 DEB SSO 2024-11-14 21:22:12 0.0001038015 615.0 (m) DEBRIS
FENGYUN 1C DEB SSO 2024-09-27 08:17:02 0.0007666566 569.0 (m) DEBRIS
CBERS 1 SSO 2024-08-24 08:46:47 0.0001124496 430.0 (m) PAYLOAD

Associated space launch

Chinese polar orbiting meteorological satellite

FENGYUN 1C DEB was lifted into orbit during the mission ‘Long March 4B | Feng Yun 1C’, on board a Long March 4B space rocket.

The launch took place on May 10, 1999, 1:33 a.m. from Launch Complex 7.

For more information about the launch, click the button.

Launch to space Long March 4B | Feng Yun 1C
Long March 4B | Feng Yun 1C

Agency: N/A

Status: Launch Successful

Launch date: May 10, 1999, 1:33 a.m. UTC

Rocket: Long March 4B

Launch pad: Launch Complex 7

Location: Taiyuan Satellite Launch Center, People's Republic of China

...

Latest news about this satellite

There are no fresh news available about this satellite. Check back as we update our databases every day.


Newsletter sign-up

Weekly statistics, charts and insights to help you stay on top of the space industry.